Regional Weather Roundup
Issued by NWS

Home | Current Version | Previous Version | Text Only | Print | Product List | Glossary On
Versions: 1 2 3 4 5 6 7 8 9 10 11 12 13 14 15 16 17 18 19 20 21 22 23 24 25 26 27
000
ASUS46 KPQR 190610
RWROR

OREGON REGIONAL WEATHER ROUNDUP
NATIONAL WEATHER SERVICE PORTLAND OR
1100 PM PDT FRI AUG 18 2017

NOTE: "FAIR" INDICATES FEW OR NO CLOUDS BELOW 12,000 FEET WITH
NO SIGNIFICANT WEATHER AND/OR OBSTRUCTIONS TO VISIBILITY.

ORZ001>013-190700-
NORTHWEST OREGON


CITY           SKY/WX    TMP DP  RH WIND       PRES   REMARKS
ASTORIA        CLOUDY    61  56  83 NW14      30.20R
6HR MIN TEMP:  61; 6HR MAX TEMP:  68; 6HR PCP: TRACE;

NEWPORT        CLEAR     54  54 100 NW5       30.20F FOG
PORTLAND       PTCLDY    66  57  72 NW10      30.15R
6HR MIN TEMP:  66; 6HR MAX TEMP:  79;

VANCOUVER WA   CLEAR     66  58  75 NW7       30.14S
6HR MIN TEMP:  66; 6HR MAX TEMP:  79;

SCAPPOOSE      CLEAR     65  56  72 NW8       30.14S
6HR MIN TEMP:  64; 6HR MAX TEMP:  79;

HILLSBORO      CLEAR     63  56  78 NW6       30.15R
6HR MIN TEMP:  63; 6HR MAX TEMP:  81;

AURORA         MOCLDY    67  55  65 N7        30.16R
6HR MIN TEMP:  67; 6HR MAX TEMP:  86;

MCMINNVILLE    CLEAR     65  57  75 CALM      30.15S
6HR MIN TEMP:  65; 6HR MAX TEMP:  86;

SALEM          CLEAR     66  56  70 NW9       30.13S
6HR MIN TEMP:  66; 6HR MAX TEMP:  87;

CORVALLIS      CLEAR     64  55  72 NW7       30.15S
EUGENE         CLEAR     64  50  60 NE6       30.13R
6HR MIN TEMP:  64; 6HR MAX TEMP:  87;

$$

ORZ021-028-190700-
SOUTHWEST OREGON


CITY           SKY/WX    TMP DP  RH WIND       PRES   REMARKS
NORTH BEND     CLOUDY    58  56  93 N16G23    30.17S
6HR MIN TEMP:  57; 6HR MAX TEMP:  65;

BROOKINGS      CLEAR     59  54  83 CALM      30.02S
ROSEBURG       CLEAR     74  50  42 N6        30.10R
6HR MIN TEMP:  74; 6HR MAX TEMP:  92;

SEXTON SUMMIT  CLEAR     63  44  50 N10G22    30.18S
6HR MIN TEMP:  63; 6HR MAX TEMP:  79;

GRANTS PASS    FAIR      77  46  33 NW3       30.10S
MEDFORD        CLEAR     73  36  25 CALM      30.06R
6HR MIN TEMP:  72; 6HR MAX TEMP:  97;

$$

ORZ014>016-041-190700-
COLUMBIA GORGE


CITY           SKY/WX    TMP DP  RH WIND       PRES   REMARKS
TROUTDALE      CLEAR     67  57  70 VRB5      30.14R
6HR MIN TEMP:  67; 6HR MAX TEMP:  82;

HOOD RIVER     MOCLDY    68  55  64 NW8       30.09R
THE DALLES     CLOUDY    73  55  53 W25       30.03R
6HR MIN TEMP:  73; 6HR MAX TEMP:  87;

$$

ORZ029>031-041-044-049-050-061>064-502-503-505>511-190700-
EASTERN OREGON


CITY           SKY/WX    TMP DP  RH WIND       PRES   REMARKS
MADRAS         PTCLDY    64  45  48 CALM      30.13R
REDMOND        CLEAR     59  36  42 NE3       30.14R
6HR MIN TEMP:  58; 6HR MAX TEMP:  89;

BEND           CLEAR     66  41  39 CALM      30.16S
PRINEVILLE     PTCLDY    57  36  44 CALM      30.15R
KLAMATH FALLS  CLOUDY    65  47  52 W8        30.16S HAZE
6HR MIN TEMP:  65; 6HR MAX TEMP:  89;

LAKEVIEW       CLEAR    N/A N/A N/A N12       30.18
HERMISTON      CLOUDY    75  52  44 W13       29.97R
6HR MIN TEMP:  75; 6HR MAX TEMP:  95;

PENDLETON      MOCLDY    74  47  38 W20       30.01R
6HR MIN TEMP:  74; 6HR MAX TEMP:  91;

JOHN DAY       CLEAR     70  32  24 CALM      30.13R
MEACHAM        MOCLDY    65  39  38 CALM      30.13R
6HR MIN TEMP:  65; 6HR MAX TEMP:  83;

LA GRANDE      NOT AVBL
BAKER CITY     CLEAR     74  24  15 N8G17     30.08S
6HR MIN TEMP:  64; 6HR MAX TEMP:  91;

BURNS          CLEAR     63  26  24 W9        30.12R
6HR MIN TEMP:  61; 6HR MAX TEMP:  91;

ROME             N/A     69  18  14 NW5       30.07S
6HR MIN TEMP:  66; 6HR MAX TEMP:  94;

ONTARIO        CLEAR     75  36  24 VRB3      29.96S
6HR MIN TEMP:  68; 6HR MAX TEMP:  93;

$$




USA.gov is the U.S. government's official web portal to all federal, state and local government web resources and services.